Temp
87 86 85 85 84 84 85 86 86 87 86 85 85 86 86 86 84 83 83 81 80 80 80 80 81 81 81 82 82 83 83 83 83 83 83 84 84 84 84 85 85 84 86 86 85 85 85 86 86 86 86 86 86 85 85 85 85 85 85 85 85 85 85
75 79 84 87 86 85 85 86 86 87 87 86 86 85 86 86 84 84 83 82 81 81 81 81 81 81 82 82 83 83 82 83 83 83 84 83 83 83 85 84 84 84 84 85 86 85 85 85 86 85 85 85 86 85 86 85 85 85 86 85 85 85 85
71 74 76 79 86 86 85 86 86 87 87 88 87 87 86 84 84 83 83 83 81 82 82 81 81 82 82 82 82 82 83 83 83 83 83 85 84 86 85 85 85 86 87 86 85 86 86 86 85 85 86 86 87 85 85 85 85 85 86 85 85 86 85
68 69 72 77 81 87 87 87 87 88 89 89 88 88 87 84 86 84 84 84 82 82 81 82 82 83 83 82 82 82 82 83 83 85 85 86 85 85 84 84 84 86 85 86 87 87 88 86 85 85 85 85 86 87 87 86 87 86 86 85 86 86 85
69 70 71 74 77 80 87 87 87 86 88 90 90 88 88 87 87 87 86 86 87 84 84 84 86 84 83 83 84 84 83 83 83 84 85 86 85 85 84 86 86 86 86 87 86 85 85 85 86 85 85 85 86 86 86 86 87 86 85 85 85 86 86
69 69 70 72 74 77 80 87 89 89 88 89 89 89 90 90 89 89 88 86 86 87 85 84 84 84 83 84 85 84 84 83 83 83 84 84 84 85 85 85 86 86 87 86 88 87 86 86 87 86 87 88 88 88 88 87 87 87 86 85 85 86 88
68 69 70 72 73 74 78 82 90 91 90 90 91 91 91 91 90 90 90 88 88 85 86 86 86 85 83 84 83 83 83 84 83 83 85 85 85 85 85 85 85 87 88 87 86 87 87 86 86 86 87 88 87 88 87 86 86 86 86 84 84 85 85
69 69 70 72 73 74 75 76 83 92 90 90 90 90 90 91 91 91 90 90 89 89 88 87 86 84 83 84 84 84 84 85 85 85 85 85 85 84 85 85 85 86 86 86 86 86 88 86 88 87 87 88 87 86 87 86 85 87 86 85 84 85 87
71 70 70 72 73 74 74 74 75 78 84 87 88 88 90 90 91 90 90 90 90 89 88 90 88 87 84 84 83 83 85 85 85 84 84 85 86 87 87 87 86 86 85 87 88 87 87 87 88 86 86 86 86 85 86 85 86 87 86 85 85 85 87
68 69 70 72 72 73 73 74 73 74 75 75 79 85 88 89 90 90 91 90 91 90 90 90 89 88 85 84 85 85 85 84 85 86 86 86 87 87 88 89 88 86 86 87 89 87 86 87 87 86 84 85 85 85 85 85 86 86 87 85 86 85 85
67 67 69 70 70 70 71 71 69 69 71 73 76 79 83 89 89 90 90 90 90 90 91 90 89 89 87 86 86 86 84 85 86 86 85 86 88 88 89 89 89 88 87 88 88 89 87 86 86 85 84 86 86 85 85 86 86 86 87 87 87 86 87
66 66 66 68 68 69 68 68 68 67 69 72 75 77 77 79 87 91 90 90 91 90 88 90 91 90 87 88 87 84 85 84 85 85 86 86 88 88 89 89 89 89 88 88 88 88 89 87 87 86 85 85 86 86 86 86 86 85 86 88 88 87 87
67 65 64 65 66 66 67 67 67 67 68 71 74 76 77 78 78 81 87 89 90 90 87 88 88 87 87 88 88 85 84 84 84 85 87 86 87 88 89 89 90 90 89 89 88 88 89 89 87 86 86 85 86 87 86 86 87 85 85 86 87 86 86
67 68 66 64 64 64 64 66 66 67 68 69 72 74 76 77 78 78 78 83 89 91 90 88 87 86 86 86 85 84 84 84 85 86 85 86 85 86 88 89 89 88 88 88 87 88 89 90 89 88 88 87 87 87 87 86 86 85 85 86 87 87 86
66 67 66 65 62 62 63 64 65 65 67 69 71 71 74 74 75 76 78 79 81 89 90 87 85 84 85 85 84 83 83 84 85 85 85 85 84 84 85 87 87 87 87 86 87 90 90 90 91 88 87 87 86 87 87 87 86 86 86 85 85 86 87
65 66 66 65 63 63 62 63 64 64 65 66 67 69 71 72 73 75 77 77 80 80 87 89 85 83 84 85 83 83 83 83 83 84 84 84 83 83 84 86 86 87 87 86 87 87 86 87 88 89 88 86 86 86 87 86 87 82 75 77 85 86 88
64 65 66 65 64 64 63 63 63 64 64 65 66 67 69 70 72 74 76 77 78 79 82 85 86 85 85 84 84 83 83 83 83 83 82 83 83 84 84 84 85 85 84 85 85 85 84 85 86 88 89 88 87 86 87 87 87 75 69 69 71 84 86
63 63 65 65 65 64 63 64 63 63 63 65 66 66 67 68 70 71 72 75 76 79 81 82 84 86 84 85 84 83 83 83 83 82 82 82 82 83 83 84 84 83 83 84 85 83 86 86 85 85 87 89 88 88 87 87 79 69 67 67 67 72 85
64 64 64 65 65 64 64 64 65 64 64 65 65 66 67 68 69 69 71 72 75 78 78 80 83 84 84 84 84 84 83 83 83 82 82 82 82 83 83 82 83 83 84 85 85 86 83 83 85 85 86 87 86 87 89 88 76 68 66 66 65 65 75
65 65 65 66 66 65 64 65 64 65 65 65 67 68 68 68 67 69 71 73 75 76 76 78 80 83 84 84 84 83 84 83 83 82 82 83 83 83 82 82 82 85 86 86 85 83 83 85 84 84 84 85 85 85 87 87 77 67 65 64 64 64 69
64 64 65 65 65 65 65 64 64 64 65 66 67 67 67 67 68 68 69 71 73 75 74 76 76 77 80 84 84 84 84 83 83 82 83 83 83 82 82 82 82 84 85 87 86 84 82 84 84 84 84 86 87 86 87 88 73 65 64 63 62 62 66
65 66 65 65 65 65 65 65 65 64 64 67 67 68 67 66 67 68 68 71 72 72 72 73 73 75 75 76 82 85 84 84 83 83 83 83 83 82 82 82 82 82 84 85 88 87 86 85 86 85 85 86 87 87 86 89 70 65 63 62 61 62 74
67 67 67 67 69 68 68 68 67 67 67 66 67 66 66 67 67 67 68 68 69 70 71 70 70 71 72 74 76 78 83 86 85 83 83 83 83 82 83 82 82 83 84 84 86 87 86 85 86 85 86 86 86 85 85 88 75 63 61 60 60 64 78
68 69 70 69 69 70 70 69 69 69 69 68 66 66 66 67 67 67 66 66 67 69 69 69 67 67 69 71 73 75 77 80 84 84 84 83 83 83 84 85 85 85 85 84 85 86 88 87 87 87 87 87 86 88 86 87 78 62 60 59 59 67 79
67 69 69 70 69 69 70 69 68 68 69 69 67 67 66 65 65 66 66 66 66 67 66 65 65 66 66 68 71 73 74 78 80 84 86 84 85 85 85 84 84 85 86 86 86 86 86 86 87 87 87 89 89 81 84 88 82 63 59 58 58 66 79
65 66 67 70 71 71 69 69 68 68 69 68 67 67 67 66 65 65 66 65 66 65 64 64 64 66 67 67 68 70 72 74 77 80 84 85 85 85 85 86 86 86 86 86 87 86 87 87 86 86 87 89 89 90 88 87 88 79 58 58 56 59 78
66 67 67 68 69 67 69 70 69 68 69 69 67 68 68 67 65 64 65 65 64 64 64 65 65 66 66 67 67 69 70 72 74 77 83 86 87 87 87 87 87 87 86 87 87 86 85 86 87 87 87 88 89 89 90 90 88 83 59 57 56 57 65
65 66 67 68 67 67 69 70 69 69 70 70 70 70 69 67 65 65 65 65 64 65 66 66 66 66 66 67 68 69 70 71 72 73 76 82 84 84 84 86 87 86 86 87 86 84 84 84 85 86 87 88 89 88 88 87 79 90 65 58 56 56 57
62 62 63 64 66 68 69 68 68 69 68 69 70 70 69 67 65 65 65 64 65 66 66 67 66 66 66 66 67 68 68 69 70 71 74 76 79 81 82 84 85 85 85 84 84 83 83 83 84 84 85 86 87 88 88 87 85 71 80 60 56 54 55
62 63 64 66 67 67 68 66 67 68 68 69 69 68 68 67 65 65 65 65 66 66 67 66 66 66 66 66 66 67 68 69 69 70 70 71 73 74 77 80 81 82 84 83 83 83 82 83 83 84 85 85 86 88 89 88 88 75 69 71 55 56 54
60 61 62 63 64 65 65 66 65 66 67 68 68 68 67 67 65 65 64 65 66 65 65 65 66 66 66 67 67 67 69 68 69 69 70 70 71 72 73 77 79 81 83 83 83 83 82 83 84 83 83 84 84 87 89 91 88 89 75 66 62 55 54
61 61 62 63 63 64 64 65 65 65 65 66 67 67 66 66 66 64 64 66 66 66 66 65 65 66 66 67 67 69 69 69 70 70 70 72 72 72 72 74 76 77 81 81 82 83 82 82 82 83 83 84 85 85 87 88 89 87 86 73 68 62 56
60 60 60 60 61 62 62 63 63 64 65 66 67 67 67 66 67 66 65 64 65 65 64 65 66 66 66 65 66 67 68 69 69 69 70 71 72 73 73 73 75 78 78 80 81 82 82 82 82 82 83 83 85 86 86 87 88 88 88 87 83 81 73
58 59 60 61 61 61 61 61 62 63 64 64 66 67 66 65 66 66 66 66 65 64 63 63 65 66 66 65 65 65 67 68 68 67 67 69 71 72 73 74 76 76 77 80 81 81 82 83 82 83 84 85 87 87 87 87 88 87 87 89 87 85 83
58 59 59 59 60 61 60 61 61 62 63 64 66 67 65 64 65 66 65 64 65 65 64 62 63 65 65 65 65 64 66 67 67 67 67 67 69 72 75 76 77 76 77 82 82 81 83 84 85 86 89 89 87 86 86 86 86 87 75 87 73 83 86
57 58 59 60 60 60 60 61 61 61 62 64 66 65 64 64 64 65 65 64 64 64 62 62 62 62 64 66 65 66 66 65 65 65 66 68 68 70 73 72 63 69 77 77 71 65 61 60 78 86 90 89 89 89 87 87 89 74 63 60 60 59 63
56 57 58 59 59 59 60 60 62 62 62 64 65 65 64 63 65 64 64 63 63 62 62 62 61 61 62 63 63 63 63 63 63 65 65 66 67 68 68 70 73 57 55 59 63 60 56 55 55 56 62 79 86 83 69 68 67 64 58 55 56 55 55
57 58 58 59 59 59 60 60 61 61 61 64 65 65 64 65 65 63 63 63 62 62 61 61 61 61 61 61 62 62 62 62 63 63 64 64 64 65 66 67 68 71 63 58 57 55 52 50 51 52 53 56 64 75 86 68 57 58 54 53 53 54 53
MSLP
1010.11 1010.35 1010.63 1010.79 1011.07 1011.35 1011.39 1011.39 1011.47 1011.75 1011.99 1012.31 1012.59 1012.87 1013.19 1013.51 1013.83 1014.15 1014.59 1015.07 1015.51 1015.91 1016.11 1016.27 1016.51 1016.67 1016.95 1017.07 1017.19 1017.31 1017.51 1017.75 1017.95 1018.27 1018.51 1018.67 1018.71 1018.95 1019.31 1019.43 1019.67 1019.83 1019.83 1020.15 1020.27 1020.39 1020.35 1020.31 1020.51 1020.63 1020.79 1020.95 1021.15 1021.23 1021.31 1021.35 1021.51 1021.59 1021.67 1021.79 1021.87 1022.03 1022.15
1012.99 1012.07 1011.03 1010.43 1010.71 1010.83 1010.75 1010.75 1010.99 1011.31 1011.59 1011.83 1012.15 1012.47 1012.67 1013.07 1013.39 1013.83 1014.23 1014.55 1014.91 1015.27 1015.59 1015.87 1016.19 1016.39 1016.59 1016.79 1016.87 1017.07 1017.39 1017.55 1017.75 1017.91 1018.15 1018.47 1018.55 1018.67 1018.79 1019.11 1019.35 1019.63 1019.71 1019.75 1019.87 1019.99 1020.11 1020.23 1020.35 1020.55 1020.75 1020.83 1020.99 1021.03 1021.15 1021.23 1021.31 1021.47 1021.55 1021.67 1021.87 1021.99 1022.03
1013.95 1013.27 1012.75 1011.95 1010.63 1010.47 1010.39 1010.47 1010.59 1010.75 1010.99 1011.31 1011.71 1012.11 1012.39 1012.63 1012.83 1013.31 1013.75 1014.23 1014.71 1014.95 1015.19 1015.51 1015.71 1015.91 1016.15 1016.43 1016.75 1016.95 1017.07 1017.31 1017.59 1017.83 1018.07 1018.19 1018.35 1018.43 1018.55 1018.75 1018.99 1019.23 1019.31 1019.43 1019.59 1019.79 1019.83 1020.11 1020.19 1020.31 1020.47 1020.67 1020.71 1020.91 1020.95 1021.07 1021.15 1021.23 1021.35 1021.51 1021.71 1021.83 1021.99
1014.47 1014.15 1013.51 1012.39 1011.19 1009.95 1009.91 1010.03 1010.19 1010.31 1010.43 1010.71 1011.11 1011.47 1011.83 1012.19 1012.27 1012.67 1013.03 1013.47 1014.11 1014.55 1014.99 1015.19 1015.43 1015.71 1015.91 1016.23 1016.55 1016.75 1016.95 1017.07 1017.19 1017.39 1017.55 1017.71 1017.99 1018.15 1018.43 1018.63 1018.83 1018.91 1019.19 1019.31 1019.31 1019.47 1019.55 1019.79 1020.07 1020.23 1020.35 1020.51 1020.63 1020.63 1020.75 1020.87 1020.91 1021.07 1021.19 1021.35 1021.59 1021.63 1021.79
1014.39 1013.99 1013.43 1012.87 1012.19 1011.31 1010.03 1010.03 1010.19 1010.39 1010.51 1010.39 1010.63 1011.03 1011.39 1011.79 1012.11 1012.39 1012.75 1012.91 1013.23 1013.79 1014.03 1014.35 1014.63 1015.03 1015.35 1015.63 1015.99 1016.23 1016.51 1016.75 1016.99 1017.11 1017.23 1017.35 1017.55 1017.83 1018.23 1018.39 1018.55 1018.71 1018.79 1018.95 1019.11 1019.35 1019.59 1019.79 1019.91 1020.07 1020.23 1020.31 1020.47 1020.51 1020.67 1020.75 1020.83 1020.91 1021.07 1021.23 1021.47 1021.47 1021.63
1014.91 1014.43 1014.03 1013.47 1012.83 1012.07 1011.23 1009.91 1009.79 1010.07 1010.35 1010.47 1010.63 1010.87 1011.07 1011.43 1011.87 1012.31 1012.43 1012.79 1013.07 1013.23 1013.59 1013.99 1014.35 1014.63 1015.07 1015.19 1015.47 1015.79 1016.07 1016.35 1016.55 1016.75 1017.03 1017.15 1017.43 1017.71 1017.91 1018.03 1018.15 1018.35 1018.63 1018.75 1018.79 1019.03 1019.23 1019.51 1019.63 1019.79 1019.99 1019.99 1020.15 1020.23 1020.35 1020.55 1020.63 1020.71 1020.91 1021.07 1021.23 1021.27 1021.35
1015.51 1014.95 1014.43 1013.91 1013.35 1012.75 1011.87 1010.59 1009.43 1009.55 1009.75 1010.03 1010.15 1010.19 1010.43 1010.87 1011.35 1011.71 1012.07 1012.51 1012.67 1013.19 1013.47 1013.79 1013.99 1014.31 1014.67 1014.87 1015.19 1015.47 1015.83 1016.03 1016.31 1016.59 1016.71 1016.99 1017.15 1017.43 1017.55 1017.67 1017.79 1017.95 1018.03 1018.31 1018.63 1018.71 1019.03 1019.27 1019.39 1019.51 1019.63 1019.75 1019.87 1019.99 1020.15 1020.39 1020.51 1020.55 1020.71 1020.95 1021.15 1021.11 1021.19
1015.83 1015.47 1014.83 1014.27 1013.71 1013.15 1012.51 1011.95 1010.47 1009.23 1009.39 1009.55 1009.91 1010.19 1010.39 1010.51 1010.91 1011.39 1011.79 1011.95 1012.31 1012.67 1012.99 1013.27 1013.63 1013.91 1014.23 1014.51 1014.79 1015.15 1015.43 1015.63 1015.83 1016.11 1016.39 1016.71 1016.91 1017.19 1017.27 1017.39 1017.55 1017.63 1017.87 1018.19 1018.27 1018.43 1018.71 1018.95 1019.03 1019.19 1019.39 1019.55 1019.71 1019.83 1019.91 1020.07 1020.27 1020.31 1020.47 1020.79 1020.95 1021.03 1020.91
1015.83 1015.51 1015.23 1014.71 1014.15 1013.55 1013.23 1012.71 1012.23 1011.55 1010.67 1010.07 1009.91 1010.03 1010.19 1010.43 1010.63 1010.95 1011.27 1011.55 1011.87 1012.27 1012.55 1012.55 1012.91 1013.23 1013.67 1014.11 1014.51 1014.79 1014.99 1015.27 1015.59 1015.87 1016.19 1016.47 1016.59 1016.79 1016.87 1017.03 1017.23 1017.35 1017.75 1017.87 1017.95 1018.07 1018.31 1018.55 1018.71 1018.99 1019.15 1019.35 1019.47 1019.63 1019.75 1019.87 1019.99 1020.03 1020.19 1020.39 1020.63 1020.79 1020.71
1016.31 1015.79 1015.27 1014.83 1014.43 1014.11 1013.79 1013.39 1013.03 1012.55 1012.47 1012.31 1011.67 1010.71 1010.27 1010.19 1010.35 1010.63 1010.95 1011.27 1011.55 1011.87 1012.03 1012.31 1012.55 1012.91 1013.39 1013.83 1014.15 1014.39 1014.75 1015.07 1015.19 1015.51 1015.83 1016.19 1016.23 1016.43 1016.47 1016.55 1016.83 1017.03 1017.39 1017.55 1017.59 1017.87 1017.99 1018.11 1018.39 1018.67 1018.95 1019.19 1019.31 1019.39 1019.47 1019.63 1019.71 1019.79 1019.87 1020.07 1020.19 1020.39 1020.51
1016.63 1016.15 1015.63 1015.15 1014.95 1014.79 1014.27 1014.03 1013.99 1013.99 1013.67 1013.15 1012.59 1011.99 1011.19 1010.43 1010.39 1010.47 1010.67 1010.91 1011.23 1011.51 1011.71 1012.07 1012.23 1012.63 1013.03 1013.43 1013.91 1014.19 1014.51 1014.75 1014.95 1015.27 1015.51 1015.67 1015.75 1015.95 1016.07 1016.23 1016.43 1016.67 1016.99 1017.23 1017.43 1017.43 1017.67 1017.95 1018.03 1018.39 1018.67 1018.87 1018.99 1019.07 1019.19 1019.27 1019.35 1019.59 1019.63 1019.63 1019.67 1019.87 1020.03
1016.99 1016.75 1016.39 1015.79 1015.43 1014.99 1015.11 1015.07 1014.79 1014.51 1014.23 1013.63 1013.19 1012.83 1012.51 1011.83 1010.87 1010.47 1010.55 1010.55 1010.67 1011.27 1011.83 1011.91 1012.07 1012.43 1012.83 1013.15 1013.63 1013.95 1014.19 1014.43 1014.59 1014.83 1014.99 1015.19 1015.31 1015.51 1015.67 1015.83 1016.11 1016.31 1016.55 1016.79 1017.15 1017.23 1017.27 1017.55 1017.71 1017.91 1018.23 1018.35 1018.47 1018.59 1018.75 1018.83 1018.99 1019.19 1019.31 1019.35 1019.43 1019.59 1019.67
1017.31 1017.23 1016.91 1016.59 1016.15 1015.83 1015.31 1015.11 1015.19 1015.07 1014.71 1014.27 1013.75 1013.39 1013.07 1012.67 1012.39 1011.83 1011.03 1010.75 1010.67 1010.83 1011.31 1011.59 1012.03 1012.31 1012.63 1012.91 1013.23 1013.59 1013.79 1013.99 1014.15 1014.23 1014.47 1014.71 1014.87 1014.99 1015.27 1015.47 1015.63 1015.91 1016.19 1016.31 1016.67 1016.95 1017.07 1017.11 1017.35 1017.39 1017.59 1017.83 1017.99 1018.19 1018.31 1018.51 1018.59 1018.79 1018.95 1019.07 1019.15 1019.31 1019.47
1017.39 1016.95 1016.91 1016.71 1016.39 1016.31 1016.23 1015.95 1015.59 1015.35 1015.11 1014.71 1014.31 1013.91 1013.51 1013.19 1012.95 1012.71 1012.39 1011.67 1010.87 1010.83 1011.11 1011.31 1011.63 1012.11 1012.51 1012.79 1013.03 1013.27 1013.39 1013.43 1013.55 1013.79 1014.03 1014.15 1014.47 1014.71 1014.87 1015.07 1015.31 1015.55 1015.75 1015.99 1016.35 1016.55 1016.67 1016.79 1016.95 1017.03 1017.15 1017.31 1017.51 1017.67 1017.79 1018.11 1018.31 1018.47 1018.59 1018.71 1018.83 1018.99 1019.15
1017.87 1017.51 1017.27 1017.19 1017.23 1016.99 1016.75 1016.51 1016.35 1015.99 1015.63 1015.23 1014.79 1014.47 1014.03 1013.75 1013.39 1013.03 1012.63 1012.27 1011.87 1011.03 1010.99 1011.15 1011.51 1011.75 1012.03 1012.39 1012.71 1012.83 1012.87 1013.03 1013.27 1013.43 1013.75 1013.99 1014.27 1014.55 1014.75 1014.91 1015.07 1015.31 1015.55 1015.75 1015.95 1016.03 1016.15 1016.31 1016.47 1016.79 1016.99 1016.99 1017.15 1017.31 1017.43 1017.67 1017.87 1017.91 1018.07 1018.39 1018.55 1018.59 1018.79
1018.39 1018.11 1017.83 1017.67 1017.59 1017.39 1017.23 1017.03 1016.63 1016.39 1015.99 1015.59 1015.35 1014.99 1014.59 1014.23 1013.95 1013.59 1013.19 1012.87 1012.35 1012.11 1011.23 1010.99 1011.43 1011.67 1011.87 1012.07 1012.19 1012.31 1012.47 1012.79 1013.07 1013.31 1013.51 1013.87 1014.07 1014.23 1014.39 1014.63 1014.83 1015.03 1015.31 1015.47 1015.59 1015.79 1015.91 1016.07 1016.23 1016.39 1016.63 1016.91 1016.99 1017.07 1017.15 1017.23 1017.15 1017.23 1017.51 1017.71 1017.91 1018.15 1018.27
1018.87 1018.55 1018.19 1017.99 1017.83 1017.63 1017.43 1017.07 1016.87 1016.55 1016.23 1015.91 1015.59 1015.43 1015.11 1014.83 1014.39 1013.91 1013.51 1013.15 1012.79 1012.47 1011.99 1011.43 1011.27 1011.39 1011.55 1011.71 1011.67 1011.91 1012.19 1012.59 1012.91 1013.11 1013.47 1013.51 1013.71 1013.91 1014.19 1014.39 1014.47 1014.71 1014.95 1015.11 1015.31 1015.51 1015.67 1015.83 1016.03 1016.11 1016.11 1016.35 1016.55 1016.79 1016.79 1016.71 1016.55 1016.75 1017.15 1017.43 1017.59 1017.71 1017.91
1019.19 1018.91 1018.55 1018.35 1018.07 1017.91 1017.63 1017.27 1017.07 1016.91 1016.67 1016.27 1015.95 1015.67 1015.39 1015.11 1014.67 1014.27 1013.99 1013.55 1013.15 1012.67 1012.11 1011.83 1011.47 1011.23 1011.31 1011.31 1011.43 1011.63 1012.03 1012.31 1012.59 1012.95 1013.11 1013.31 1013.55 1013.67 1013.79 1014.03 1014.31 1014.51 1014.67 1014.83 1015.07 1015.23 1015.27 1015.55 1015.63 1015.67 1015.75 1015.83 1015.95 1016.11 1016.11 1016.07 1015.95 1016.39 1016.75 1017.07 1017.35 1017.51 1017.51
1019.23 1019.11 1018.91 1018.47 1018.27 1018.07 1017.87 1017.67 1017.39 1017.27 1016.99 1016.51 1016.27 1015.91 1015.67 1015.31 1015.03 1014.71 1014.31 1013.95 1013.35 1012.75 1012.43 1012.11 1011.67 1011.35 1011.23 1011.23 1011.35 1011.59 1011.79 1012.03 1012.35 1012.59 1012.83 1012.95 1013.07 1013.31 1013.55 1013.87 1014.11 1014.27 1014.43 1014.55 1014.47 1014.71 1015.15 1015.19 1015.23 1015.35 1015.31 1015.43 1015.59 1015.55 1015.39 1015.43 1015.39 1015.95 1016.27 1016.59 1016.91 1017.19 1017.35
1019.23 1019.11 1018.83 1018.63 1018.35 1018.15 1017.99 1017.75 1017.59 1017.31 1017.11 1016.79 1016.43 1016.03 1015.75 1015.51 1015.31 1014.95 1014.51 1014.03 1013.47 1013.07 1012.75 1012.43 1011.99 1011.43 1011.15 1011.15 1011.31 1011.51 1011.63 1011.79 1012.07 1012.31 1012.43 1012.55 1012.79 1013.03 1013.31 1013.59 1013.79 1013.67 1013.71 1013.91 1014.19 1014.51 1014.63 1014.67 1014.87 1014.91 1015.07 1015.03 1015.11 1015.07 1014.91 1014.87 1014.83 1015.31 1015.67 1016.07 1016.47 1016.79 1017.15
1019.23 1019.03 1018.87 1018.67 1018.47 1018.15 1017.99 1017.83 1017.71 1017.39 1017.07 1016.71 1016.51 1016.19 1015.87 1015.63 1015.31 1014.99 1014.59 1014.11 1013.79 1013.35 1013.11 1012.79 1012.59 1012.23 1011.67 1011.15 1011.07 1011.27 1011.43 1011.59 1011.75 1011.95 1012.07 1012.23 1012.51 1012.79 1013.03 1013.19 1013.31 1013.43 1013.47 1013.51 1013.75 1014.03 1014.19 1014.23 1014.43 1014.43 1014.47 1014.47 1014.51 1014.59 1014.55 1014.27 1014.27 1014.79 1015.15 1015.55 1015.99 1016.39 1016.91
1019.19 1018.91 1018.91 1018.75 1018.51 1018.23 1017.95 1017.79 1017.63 1017.51 1017.31 1016.83 1016.55 1016.19 1015.99 1015.79 1015.39 1015.11 1014.79 1014.27 1014.03 1013.83 1013.55 1013.35 1013.15 1012.83 1012.55 1012.15 1011.47 1011.11 1011.15 1011.31 1011.47 1011.63 1011.71 1011.95 1012.19 1012.51 1012.75 1012.83 1012.99 1013.15 1013.11 1013.19 1013.19 1013.23 1013.39 1013.59 1013.67 1013.87 1013.95 1013.87 1013.95 1014.11 1014.11 1013.59 1013.79 1014.27 1014.67 1015.03 1015.51 1016.11 1016.59
1019.15 1018.95 1018.75 1018.51 1018.31 1018.15 1017.87 1017.59 1017.51 1017.31 1017.11 1016.99 1016.67 1016.43 1016.15 1015.79 1015.43 1015.23 1014.95 1014.67 1014.31 1014.07 1013.87 1013.75 1013.71 1013.47 1013.15 1012.87 1012.47 1011.99 1011.31 1010.91 1011.15 1011.31 1011.47 1011.59 1011.91 1012.11 1012.27 1012.47 1012.59 1012.67 1012.63 1013.03 1012.99 1013.07 1013.15 1013.15 1013.15 1013.15 1013.27 1013.35 1013.43 1013.63 1013.51 1013.23 1013.27 1013.75 1014.15 1014.63 1015.11 1015.91 1016.03
1019.03 1018.79 1018.51 1018.39 1018.15 1017.99 1017.79 1017.55 1017.39 1017.15 1017.07 1016.91 1016.75 1016.59 1016.31 1015.95 1015.59 1015.31 1015.19 1014.99 1014.67 1014.39 1014.19 1014.03 1014.11 1013.99 1013.71 1013.35 1012.91 1012.59 1012.15 1011.47 1010.91 1010.99 1011.11 1011.31 1011.55 1011.59 1011.63 1011.67 1011.79 1012.03 1012.07 1012.47 1012.63 1012.67 1012.47 1012.47 1012.55 1012.47 1012.51 1012.67 1012.83 1012.79 1013.07 1012.91 1012.79 1013.31 1013.75 1014.27 1014.83 1015.19 1015.35
1019.11 1018.87 1018.63 1018.35 1018.23 1018.07 1017.83 1017.75 1017.59 1017.35 1017.03 1016.87 1016.83 1016.59 1016.39 1016.11 1015.71 1015.43 1015.31 1015.15 1014.91 1014.71 1014.71 1014.51 1014.31 1014.19 1014.03 1013.71 1013.23 1012.79 1012.43 1011.91 1011.27 1010.71 1010.63 1010.83 1010.91 1010.95 1011.15 1011.27 1011.31 1011.27 1011.39 1011.59 1011.79 1011.91 1011.83 1011.87 1011.99 1011.99 1011.95 1011.91 1012.03 1012.15 1012.47 1012.35 1012.31 1012.71 1013.23 1013.79 1014.31 1014.75 1014.75
1019.23 1018.99 1018.75 1018.35 1017.99 1017.83 1017.83 1017.71 1017.63 1017.43 1017.15 1016.95 1016.87 1016.51 1016.31 1016.19 1015.91 1015.63 1015.39 1015.23 1015.07 1014.99 1014.91 1014.75 1014.51 1014.19 1013.91 1013.63 1013.27 1012.95 1012.59 1012.15 1011.67 1010.99 1010.43 1010.27 1010.31 1010.31 1010.43 1010.47 1010.63 1010.75 1010.95 1011.03 1011.11 1011.31 1011.31 1011.35 1011.47 1011.67 1011.55 1011.39 1011.47 1011.55 1011.67 1011.91 1011.87 1012.07 1012.67 1013.19 1013.75 1014.11 1014.15
1019.15 1018.95 1018.79 1018.51 1018.15 1018.03 1017.75 1017.55 1017.47 1017.47 1017.23 1016.95 1016.79 1016.51 1016.31 1016.27 1016.15 1015.91 1015.63 1015.27 1015.15 1015.11 1014.83 1014.55 1014.31 1014.07 1013.79 1013.47 1013.15 1012.91 1012.67 1012.27 1011.87 1011.47 1010.51 1009.87 1009.67 1009.67 1009.79 1009.83 1010.03 1010.07 1010.31 1010.51 1010.51 1010.67 1010.87 1010.91 1010.99 1011.07 1011.07 1010.91 1010.87 1010.91 1010.91 1010.95 1011.31 1011.47 1012.03 1012.55 1013.03 1013.47 1013.71
1019.19 1018.87 1018.55 1018.31 1018.23 1018.03 1017.75 1017.47 1017.35 1017.23 1016.95 1016.75 1016.59 1016.43 1016.39 1016.39 1016.35 1016.03 1015.71 1015.43 1015.11 1014.91 1014.55 1014.19 1014.07 1013.95 1013.67 1013.31 1012.99 1012.83 1012.63 1012.39 1011.99 1011.59 1011.11 1010.07 1009.55 1009.51 1009.47 1009.27 1009.31 1009.51 1009.67 1009.79 1009.99 1010.35 1010.55 1010.59 1010.67 1010.71 1010.67 1010.51 1010.39 1010.39 1010.39 1010.31 1010.63 1010.83 1011.35 1011.83 1012.35 1012.75 1013.03
1019.39 1019.11 1018.83 1018.55 1018.19 1017.83 1017.71 1017.51 1017.27 1017.11 1017.03 1016.71 1016.51 1016.43 1016.39 1016.43 1016.39 1015.99 1015.63 1015.51 1015.19 1014.75 1014.47 1014.11 1013.91 1013.79 1013.55 1013.23 1013.07 1012.87 1012.59 1012.35 1012.15 1011.75 1011.23 1010.83 1010.11 1009.71 1009.43 1009.03 1009.11 1009.19 1009.27 1009.55 1009.75 1009.99 1010.23 1010.35 1010.43 1010.51 1010.55 1010.39 1010.11 1009.91 1009.91 1009.87 1009.99 1010.31 1010.67 1011.19 1011.67 1012.07 1012.43
1019.47 1019.07 1018.75 1018.43 1018.11 1017.83 1017.71 1017.55 1017.23 1017.03 1016.83 1016.67 1016.51 1016.43 1016.35 1016.35 1016.35 1016.07 1015.75 1015.39 1014.99 1014.67 1014.35 1014.15 1013.95 1013.75 1013.55 1013.31 1012.99 1012.71 1012.51 1012.23 1012.03 1011.79 1011.43 1011.15 1010.87 1010.55 1010.11 1009.59 1009.15 1008.87 1008.95 1009.07 1009.35 1009.59 1009.83 1009.83 1009.91 1010.11 1010.23 1010.23 1009.99 1009.67 1009.51 1009.39 1009.43 1009.67 1009.99 1010.47 1011.03 1011.39 1011.75
1019.59 1019.23 1018.83 1018.43 1018.15 1017.87 1017.71 1017.47 1017.23 1016.95 1016.75 1016.55 1016.47 1016.31 1016.31 1016.23 1016.23 1016.07 1015.83 1015.35 1014.99 1014.79 1014.47 1014.31 1014.03 1013.83 1013.55 1013.39 1013.15 1012.75 1012.35 1012.07 1011.87 1011.63 1011.35 1011.03 1010.87 1011.07 1010.87 1010.19 1009.55 1009.15 1008.59 1008.75 1008.91 1009.03 1009.27 1009.27 1009.31 1009.59 1009.67 1009.75 1009.75 1009.39 1009.11 1008.87 1009.03 1008.99 1009.35 1009.79 1010.31 1010.83 1011.23
1019.27 1019.11 1018.75 1018.35 1018.07 1017.91 1017.71 1017.39 1017.11 1016.87 1016.63 1016.39 1016.27 1016.19 1016.15 1016.11 1015.99 1015.99 1015.71 1015.35 1015.11 1014.91 1014.67 1014.31 1013.99 1013.83 1013.55 1013.39 1013.23 1012.87 1012.43 1011.99 1011.63 1011.39 1011.15 1010.79 1010.47 1010.59 1010.99 1010.75 1009.87 1009.59 1008.75 1008.55 1008.55 1008.55 1008.71 1008.83 1008.91 1008.99 1009.07 1009.23 1009.03 1009.07 1008.83 1008.63 1008.71 1008.71 1008.67 1009.19 1009.67 1010.31 1010.75
1019.15 1018.95 1018.79 1018.51 1018.11 1017.99 1017.75 1017.47 1017.11 1016.75 1016.47 1016.23 1015.99 1015.99 1015.99 1015.99 1015.75 1015.63 1015.51 1015.43 1015.15 1014.87 1014.71 1014.43 1014.07 1013.79 1013.59 1013.39 1013.07 1012.87 1012.55 1012.19 1011.79 1011.51 1011.23 1010.79 1010.07 1009.83 1010.27 1010.55 1010.03 1009.39 1008.91 1008.47 1008.31 1008.27 1008.27 1008.39 1008.51 1008.67 1008.67 1008.71 1008.55 1008.47 1008.43 1008.47 1008.31 1008.35 1008.31 1008.39 1008.99 1009.55 1010.11
1018.95 1018.67 1018.47 1018.35 1018.03 1017.79 1017.59 1017.39 1017.03 1016.67 1016.35 1016.11 1015.79 1015.67 1015.75 1015.83 1015.75 1015.55 1015.43 1015.27 1015.11 1014.87 1014.79 1014.59 1014.23 1013.79 1013.67 1013.47 1013.07 1012.71 1012.31 1012.03 1011.83 1011.75 1011.59 1011.27 1010.59 1010.23 1010.19 1010.27 1010.19 1009.83 1009.11 1008.35 1008.07 1008.11 1008.03 1007.99 1008.03 1008.07 1007.99 1007.91 1007.83 1007.83 1007.95 1007.99 1007.75 1007.79 1007.91 1007.87 1008.19 1008.51 1008.75
1018.75 1018.51 1018.27 1018.11 1017.87 1017.67 1017.35 1017.11 1016.87 1016.51 1016.23 1015.83 1015.51 1015.43 1015.55 1015.63 1015.59 1015.43 1015.35 1015.23 1015.03 1014.75 1014.67 1014.71 1014.43 1013.99 1013.51 1013.31 1013.03 1012.67 1012.27 1012.07 1012.03 1011.95 1011.79 1011.59 1011.15 1010.55 1010.19 1010.27 1010.31 1010.11 1009.43 1008.11 1007.47 1007.51 1007.59 1007.59 1007.27 1006.99 1006.75 1006.87 1007.19 1007.47 1007.59 1007.51 1007.47 1007.03 1006.63 1006.79 1006.95 1007.31 1007.79
1018.59 1018.27 1017.95 1017.75 1017.59 1017.31 1017.03 1016.71 1016.59 1016.35 1015.99 1015.59 1015.35 1015.27 1015.35 1015.43 1015.35 1015.23 1015.23 1015.11 1014.91 1014.71 1014.63 1014.47 1014.43 1014.15 1013.55 1013.07 1012.91 1012.67 1012.27 1012.11 1012.03 1012.07 1011.91 1011.55 1011.15 1010.95 1010.55 1010.07 1010.11 1009.79 1009.39 1008.51 1007.79 1007.55 1007.35 1007.47 1007.27 1006.39 1006.11 1006.27 1006.03 1006.03 1006.67 1006.63 1006.11 1005.95 1006.39 1006.67 1006.91 1007.15 1007.35
1018.55 1018.15 1017.79 1017.47 1017.27 1016.91 1016.67 1016.31 1016.07 1015.95 1015.67 1015.35 1015.11 1015.03 1015.11 1015.19 1015.07 1015.11 1015.15 1015.03 1014.83 1014.71 1014.63 1014.43 1014.27 1013.95 1013.59 1013.19 1012.91 1012.79 1012.59 1012.39 1012.19 1011.99 1011.83 1011.51 1011.19 1010.99 1010.91 1010.43 1009.63 1009.19 1008.75 1008.19 1007.75 1007.43 1007.23 1007.07 1006.83 1006.71 1006.47 1006.19 1005.99 1005.51 1005.55 1005.59 1005.83 1006.11 1006.35 1006.63 1006.83 1007.07 1007.31
1018.19 1017.83 1017.39 1016.99 1016.79 1016.55 1016.23 1015.87 1015.67 1015.55 1015.31 1014.95 1014.75 1014.63 1014.75 1014.79 1014.79 1014.99 1014.99 1014.87 1014.79 1014.67 1014.59 1014.47 1014.31 1014.03 1013.63 1013.23 1012.87 1012.67 1012.55 1012.43 1012.39 1012.27 1011.91 1011.39 1011.23 1011.27 1011.19 1010.75 1010.11 1008.87 1007.99 1007.75 1007.31 1006.95 1006.83 1006.67 1006.51 1006.39 1006.31 1006.07 1005.87 1005.79 1005.55 1005.51 1005.83 1006.15 1006.39 1006.47 1006.67 1006.87 1007.11
Wind_Speed
13 14 13 13 14 15 16 15 17 16 15 15 15 18 18 16 14 13 13 14 16 14 14 14 14 13 14 12 12 11 10 10 8 9 8 8 7 7 7 7 7 6 5 5 5 6 5 6 6 7 6 7 7 6 6 5 4 4 4 4 4 3 4
14 11 7 13 15 15 16 16 16 15 14 15 15 17 16 17 15 15 14 15 16 16 16 16 15 14 14 13 11 12 12 11 10 8 8 6 6 6 7 7 7 6 6 5 5 5 5 6 6 7 7 7 7 7 6 5 5 5 4 4 4 4 4
13 12 12 12 10 14 16 15 15 16 16 15 16 16 16 16 16 17 15 16 16 15 14 16 16 15 14 13 12 13 13 12 11 11 11 11 11 11 8 8 7 7 7 7 6 5 6 6 6 6 7 7 8 8 6 6 6 5 5 4 4 4 4
13 11 12 11 13 11 15 15 16 17 16 17 17 18 17 16 17 15 16 18 18 16 16 15 15 15 14 13 13 12 13 13 13 12 13 11 11 10 8 8 7 7 7 7 6 6 5 6 7 7 7 7 7 7 7 7 6 6 6 5 5 5 5
15 14 12 13 12 13 10 12 12 12 14 16 16 15 15 15 16 15 16 17 19 19 19 19 16 15 13 14 12 11 13 14 13 12 11 11 10 9 9 11 9 10 8 7 7 6 6 6 7 7 7 7 7 7 7 7 7 6 6 6 6 6 5
15 15 14 12 13 11 14 10 13 14 14 15 15 15 15 17 15 18 18 17 17 17 16 16 16 15 15 15 14 12 12 12 12 12 11 10 10 10 11 11 11 11 10 9 8 8 8 7 8 8 8 8 8 8 8 8 7 7 7 7 7 6 6
13 15 14 15 13 13 14 13 11 12 14 14 14 15 16 16 18 17 17 17 18 18 18 18 17 15 14 13 14 14 15 14 13 13 12 12 12 11 11 10 10 10 10 8 8 8 8 8 8 8 8 8 8 8 8 8 8 7 7 7 7 7 7
14 13 15 15 15 15 14 16 13 10 12 12 12 14 15 16 16 17 17 17 17 16 16 18 17 15 14 13 13 15 14 15 13 13 12 14 13 13 11 11 10 9 8 10 9 9 9 10 9 8 9 9 9 8 8 8 9 9 8 8 8 8 6
13 14 15 15 16 16 15 15 14 16 9 7 14 13 15 15 16 17 18 17 16 17 17 18 17 16 14 14 14 15 15 14 13 13 14 15 13 14 14 12 11 9 10 11 10 9 10 10 10 9 9 9 8 8 8 8 9 9 9 8 9 9 8
14 15 16 16 16 15 15 14 16 15 15 16 12 7 14 14 15 15 16 16 16 18 18 17 15 15 14 14 15 15 14 14 13 15 15 15 14 15 15 12 11 10 11 11 10 10 10 10 10 10 9 10 9 9 9 9 9 9 9 10 9 9 9
13 13 15 18 17 17 17 19 18 14 14 14 13 15 8 10 13 15 16 15 16 16 16 15 13 14 14 16 16 16 15 16 15 15 16 16 14 16 15 14 12 10 12 12 12 12 10 10 10 10 10 10 11 10 10 10 9 9 10 9 9 10 10
14 13 14 15 17 19 18 15 13 15 15 13 15 13 13 13 5 13 13 15 16 14 13 14 13 13 14 15 16 15 17 15 16 16 17 17 16 16 15 14 13 12 11 12 13 12 11 11 10 10 11 11 11 10 10 9 9 10 10 10 10 9 9
13 13 12 14 13 13 15 17 17 16 14 14 15 14 13 12 14 12 6 13 14 14 15 13 12 13 13 15 16 14 16 16 16 15 16 15 15 13 13 14 14 13 13 12 13 12 12 11 12 10 11 11 11 11 11 10 10 9 10 10 10 10 10
15 16 16 15 16 17 15 14 16 17 15 16 15 15 13 13 13 11 12 7 10 12 13 12 13 12 12 14 14 14 15 15 15 15 14 14 13 13 14 13 13 12 11 11 12 13 13 13 12 11 11 11 11 11 10 10 10 10 10 10 11 10 11
16 16 16 16 15 15 14 14 14 14 15 14 15 16 15 14 13 13 12 11 12 7 13 12 13 13 14 14 14 14 13 13 13 13 13 13 12 13 13 13 12 11 11 11 11 11 12 12 12 11 11 11 11 11 10 10 11 10 10 11 12 11 11
15 15 16 16 15 14 12 13 13 13 13 14 15 16 15 14 13 13 12 12 10 11 6 10 11 13 13 14 14 12 12 12 11 11 12 13 13 13 14 13 13 13 13 13 12 12 11 11 11 12 12 11 11 11 10 10 9 11 15 13 10 11 10
14 15 15 15 14 14 13 13 13 13 13 14 15 15 13 12 12 12 13 11 11 10 9 7 10 13 15 14 13 11 11 11 12 11 12 13 13 12 14 14 13 12 13 13 13 13 11 11 13 13 12 13 12 12 11 10 10 15 16 16 16 12 11
14 14 15 14 13 13 13 14 13 14 14 13 13 14 13 13 12 12 12 12 12 11 10 9 7 11 13 13 10 10 11 12 12 12 13 13 13 13 13 13 13 12 13 12 13 12 12 13 14 13 13 12 13 14 13 12 14 15 16 17 18 15 12
12 12 13 13 13 13 12 13 12 12 13 11 12 12 13 12 12 12 12 12 12 11 10 10 8 8 10 11 11 11 11 11 12 13 13 13 13 12 12 13 13 13 13 14 14 12 13 14 14 14 14 13 14 15 15 14 15 16 17 18 18 18 15
11 12 11 12 13 12 11 10 11 11 11 11 11 11 11 10 11 10 10 10 11 11 11 11 10 7 9 9 11 10 10 11 12 13 13 12 12 12 13 13 14 15 14 13 12 13 13 15 15 13 13 14 14 13 14 14 14 18 19 18 18 18 15
12 12 12 12 12 13 12 10 10 11 12 13 12 10 10 11 10 10 9 10 11 11 11 12 11 11 9 7 10 9 11 11 12 13 12 12 12 12 13 14 13 14 13 13 13 13 14 14 15 14 14 15 15 14 14 14 16 17 19 19 19 18 15
12 12 12 11 12 12 12 12 12 11 11 11 12 11 10 10 10 10 10 9 10 10 10 11 11 11 11 12 7 9 10 10 12 12 12 12 12 13 13 13 13 13 13 12 12 12 12 13 13 14 15 15 16 15 16 15 16 17 18 19 18 17 10
11 11 11 11 11 12 11 11 11 11 10 10 10 12 11 11 10 9 9 10 10 10 9 10 11 11 11 11 11 12 9 12 12 11 12 12 12 13 14 13 13 13 11 12 13 12 13 13 14 13 14 16 15 16 15 15 15 17 18 18 18 13 10
11 11 12 11 11 10 11 11 11 11 10 10 9 10 10 11 10 9 9 10 10 11 10 10 10 11 12 11 12 12 12 12 11 12 11 12 13 13 13 13 12 12 11 13 13 14 14 13 13 14 14 16 16 16 15 16 14 17 18 18 18 16 11
11 11 12 12 11 11 11 11 11 12 11 10 11 11 11 11 11 8 8 9 10 10 10 10 10 10 10 12 11 11 12 11 12 13 13 13 14 13 13 13 12 12 11 13 13 13 12 12 12 13 13 15 16 16 17 16 15 16 18 19 19 16 11
12 12 12 12 12 11 11 10 10 11 11 11 10 10 10 10 9 9 8 8 8 9 10 11 10 10 10 9 9 9 10 11 12 12 13 14 13 13 13 12 12 13 13 13 12 12 13 13 13 14 13 13 15 14 16 17 15 13 19 19 20 21 13
13 12 13 13 12 12 10 9 9 10 11 8 8 8 9 9 8 8 8 7 7 9 9 9 9 10 10 10 9 10 10 10 10 13 13 14 13 13 13 12 13 13 13 13 13 13 12 14 13 13 14 13 14 14 15 14 15 14 19 20 21 22 19
14 14 13 13 13 12 10 11 9 10 11 10 8 7 7 8 8 8 8 7 6 8 9 9 9 10 11 11 10 10 10 10 10 10 11 12 13 13 13 12 13 12 13 12 12 13 14 13 13 13 13 13 14 14 15 14 16 14 16 21 22 22 25
15 14 14 14 14 12 11 11 11 10 10 10 9 7 6 7 8 8 8 8 9 7 8 9 9 9 11 11 10 10 9 10 11 10 9 12 13 13 13 13 13 14 12 13 14 14 14 14 13 13 13 12 12 12 13 14 12 18 14 19 22 23 23
13 14 14 14 14 14 12 12 11 11 9 9 8 7 6 6 7 7 9 10 9 9 8 8 9 9 10 10 10 9 8 8 9 10 9 10 12 13 11 12 13 13 13 14 14 15 15 15 15 15 16 17 16 14 13 12 12 13 19 16 22 21 23
13 14 15 15 15 14 13 12 13 12 11 8 9 7 6 5 6 7 8 8 9 10 9 8 8 8 8 10 12 12 11 10 9 9 9 7 7 9 12 13 12 13 13 14 15 15 15 15 14 14 15 15 16 15 15 14 12 11 14 20 19 22 22
14 13 15 15 15 14 14 13 13 13 12 10 8 7 5 5 6 7 7 7 8 9 10 9 9 9 9 10 11 11 12 13 12 9 10 10 4 4 8 13 12 10 10 11 14 14 15 14 14 15 14 14 15 15 14 14 12 12 10 12 16 16 20
15 15 15 16 16 15 13 13 13 13 13 13 9 6 5 6 6 6 5 6 6 7 9 9 8 9 9 10 11 11 10 12 10 10 9 10 7 4 5 11 13 12 11 10 12 13 12 13 14 15 15 15 15 15 14 14 15 13 11 9 9 10 11
16 17 16 16 17 16 16 14 14 14 13 12 9 7 5 5 6 5 6 6 5 5 7 9 9 7 8 11 12 11 10 10 14 13 8 10 10 9 8 8 10 12 11 12 11 12 13 14 15 16 16 15 15 14 14 15 14 13 12 12 10 11 11
15 16 17 17 16 16 16 16 15 14 14 13 10 7 5 5 5 5 6 5 6 6 7 8 10 10 7 8 10 10 11 10 10 10 10 9 9 9 9 10 11 12 13 13 9 8 10 12 14 14 15 14 13 12 13 13 13 14 12 13 14 14 12
15 16 16 16 15 17 19 19 17 16 14 13 10 7 6 4 5 6 5 5 5 7 7 8 9 10 8 6 7 9 11 11 10 10 10 10 10 10 11 13 16 16 14 12 12 15 18 13 12 14 12 13 14 14 13 13 12 10 14 16 15 15 15
16 15 16 17 17 18 18 19 18 17 15 13 9 7 5 5 5 5 4 4 5 6 7 7 8 9 9 8 5 7 9 9 10 11 10 10 10 10 12 13 13 16 19 18 15 15 17 19 21 21 19 15 14 13 15 16 9 6 12 15 17 16 16
16 16 16 16 15 17 19 20 19 18 16 13 11 7 5 6 5 4 3 3 5 6 7 8 7 8 9 9 8 7 6 8 9 10 10 10 9 10 11 12 13 15 14 14 14 14 15 17 19 19 19 21 19 15 15 13 14 13 12 15 16 17 17
Wind_Direction
213 212 203 199 201 206 210 203 198 197 188 183 184 188 188 187 185 178 179 180 186 186 184 185 189 191 196 196 196 194 194 192 192 198 197 200 199 190 190 198 203 199 200 199 193 196 196 190 187 191 189 193 204 207 217 218 218 216 212 208 210 217 231
8 347 294 214 205 202 207 203 195 198 196 190 188 186 186 186 182 182 184 182 187 186 182 186 188 192 195 197 195 192 192 195 195 194 195 193 192 196 192 192 198 195 196 203 193 196 196 195 196 194 193 195 203 203 203 208 216 220 220 207 212 215 215
3 351 349 340 243 204 203 199 196 199 198 194 191 187 187 184 179 181 182 184 188 190 185 187 188 190 192 194 193 194 194 195 197 198 201 204 202 204 196 195 197 201 202 198 200 197 197 204 202 203 200 198 202 196 198 201 208 217 220 210 216 224 221
358 354 347 337 336 239 211 204 199 200 199 197 193 191 192 183 182 181 182 184 187 187 187 188 189 192 192 191 194 195 196 197 198 202 206 206 200 195 189 192 193 199 194 200 198 199 198 199 202 205 203 203 200 198 196 202 209 211 214 210 219 220 224
3 2 1 357 347 336 252 208 202 195 198 200 196 191 192 186 187 187 187 189 190 190 190 188 190 191 191 191 193 196 197 197 198 202 204 205 198 191 194 200 196 201 201 194 191 192 195 198 205 204 203 206 206 198 196 195 207 204 208 209 222 217 222
8 8 5 360 355 346 338 259 205 197 194 198 195 192 194 192 194 195 194 190 192 193 191 190 191 188 188 190 192 194 195 197 198 199 201 200 195 201 203 202 200 199 198 200 196 199 197 205 210 208 209 209 210 209 203 197 202 204 206 208 221 225 229
9 11 11 8 5 1 355 341 230 206 199 198 198 196 193 194 195 198 197 195 193 188 188 190 192 191 191 189 194 192 191 194 196 200 202 206 204 205 207 204 202 201 205 189 200 197 200 206 211 212 214 219 213 210 201 195 195 199 202 209 216 222 225
18 16 15 15 14 15 11 8 349 215 192 194 194 194 196 196 194 196 197 199 196 194 193 192 191 192 189 191 192 195 196 200 198 199 199 203 204 207 209 208 203 200 191 198 200 195 204 205 210 213 215 218 215 209 204 194 193 198 201 207 213 217 215
19 27 25 21 21 22 23 17 16 11 347 232 198 195 201 198 198 196 199 198 196 197 196 196 194 191 187 188 190 194 197 197 198 195 199 204 207 210 212 210 207 199 200 208 206 198 203 203 208 206 208 215 216 210 209 200 198 200 201 205 209 213 220
14 19 23 26 24 24 24 28 25 19 13 13 357 254 207 200 197 195 197 198 199 200 198 197 194 190 186 188 194 195 194 195 197 197 200 205 209 212 212 212 208 200 205 208 208 200 198 200 201 200 203 211 214 213 212 206 204 202 202 204 208 213 216
8 12 21 25 25 23 24 27 23 19 16 13 8 8 335 220 195 196 195 194 199 201 201 198 196 193 189 190 195 196 198 200 198 200 202 206 209 211 210 211 208 202 206 208 212 209 196 195 196 198 200 210 214 214 212 211 207 207 210 208 210 213 217
15 12 17 19 23 23 24 23 20 21 17 14 18 11 7 2 277 208 198 198 194 192 191 203 199 197 192 193 196 197 199 198 200 203 203 204 208 210 209 209 208 206 204 208 212 210 206 197 196 197 200 207 210 212 212 210 209 209 212 212 211 213 218
18 19 15 19 20 18 20 19 18 17 15 16 17 16 14 9 9 356 270 209 200 190 188 195 195 196 195 196 198 199 200 197 199 201 203 203 206 207 208 209 209 208 207 205 211 213 213 209 203 199 202 202 206 211 212 210 212 211 211 214 214 213 215
19 22 20 17 20 19 15 12 15 14 12 13 13 14 14 15 12 3 1 333 222 198 191 188 191 189 195 198 202 201 199 200 199 201 201 202 200 204 207 208 210 209 209 206 208 213 217 216 210 206 205 206 207 210 209 207 210 211 211 212 213 213 215
19 20 19 19 16 14 11 11 8 5 9 8 11 11 11 11 7 6 1 359 352 253 203 191 189 190 194 197 201 203 198 196 199 199 199 198 195 199 203 206 206 205 205 205 211 214 218 219 219 213 210 210 209 209 207 209 210 210 209 208 210 214 217
21 19 17 17 14 9 5 5 4 4 3 8 11 9 8 5 4 2 0 359 351 353 294 202 189 194 203 203 202 199 193 193 195 198 197 195 199 199 201 204 203 204 205 209 211 213 213 216 217 219 214 210 209 210 211 212 213 206 202 203 207 208 216
20 16 16 15 12 9 4 1 3 2 4 7 5 5 4 359 358 354 359 356 356 347 341 305 211 197 202 208 204 194 189 192 197 198 195 199 202 200 202 204 204 206 207 208 208 209 206 207 213 218 222 219 217 214 215 217 218 206 199 204 208 213 214
19 13 11 8 5 7 5 2 2 1 1 360 2 1 358 358 353 355 353 354 355 347 338 329 294 224 211 209 199 190 191 196 198 198 201 200 203 203 200 202 202 204 203 202 204 203 207 211 215 218 219 220 220 221 220 222 220 205 201 203 206 210 218
14 13 7 1 2 3 3 1 357 358 353 357 358 357 356 352 351 354 349 347 349 345 346 342 318 272 227 214 208 203 196 198 198 199 202 202 201 200 196 198 202 205 206 209 209 208 209 215 215 215 215 219 220 224 224 227 215 204 203 204 204 206 213
9 8 4 2 359 356 356 357 357 351 353 356 352 356 348 348 348 342 343 342 341 354 354 352 348 316 257 219 210 207 205 201 201 204 205 203 200 199 199 201 206 210 211 212 207 207 208 212 216 217 215 218 221 224 227 228 216 201 203 204 204 204 204
1 1 0 1 353 351 351 350 350 349 351 354 350 351 349 347 348 340 343 352 352 356 359 358 357 2 343 257 217 212 211 207 206 207 205 203 199 200 203 205 208 210 211 211 208 206 207 211 215 216 216 217 220 224 228 229 218 200 202 204 204 202 199
352 349 354 351 349 346 343 345 345 346 345 341 346 349 353 346 340 343 346 349 2 357 1 357 358 1 356 358 324 240 222 219 214 211 210 204 203 203 206 207 206 206 207 213 217 217 216 214 217 217 218 220 223 227 232 234 214 202 202 203 204 197 198
347 344 338 338 343 340 335 335 336 338 335 340 341 346 347 344 342 342 348 352 356 357 359 3 359 355 355 348 345 343 302 242 226 221 215 210 207 208 209 208 207 207 205 212 218 220 219 218 217 219 222 222 221 224 230 236 215 200 202 201 199 188 207
343 345 340 334 331 333 339 335 334 331 334 334 342 343 337 336 340 343 354 355 352 353 352 2 0 353 345 341 344 332 327 318 259 228 218 215 214 213 214 213 212 212 205 212 215 221 223 221 221 221 222 223 224 222 227 233 221 197 200 198 191 191 203
334 336 336 336 331 331 333 334 326 323 326 334 341 342 336 333 333 344 354 356 352 351 349 350 350 348 339 336 330 329 325 313 304 255 230 221 220 220 219 214 213 211 207 212 216 223 225 224 227 226 225 226 227 222 226 235 230 198 197 194 190 192 208
325 329 328 327 331 331 326 318 317 319 329 335 335 332 334 332 330 337 350 354 348 349 346 343 338 330 331 324 318 324 319 318 310 291 251 231 221 221 219 215 213 212 210 213 216 220 221 222 224 226 228 227 227 227 225 232 237 205 193 191 191 192 202
319 321 319 322 324 326 317 318 315 314 317 323 322 328 333 332 326 330 336 343 354 348 336 332 329 328 327 326 329 326 320 314 316 313 285 247 234 224 220 217 219 218 217 218 218 219 221 223 224 226 230 230 230 232 230 230 229 217 186 191 189 194 199
316 316 316 319 318 316 315 315 313 308 313 318 322 326 328 328 325 325 327 328 351 340 325 329 332 328 323 331 334 329 320 317 314 311 311 281 246 235 224 223 223 222 220 220 217 217 220 221 223 228 232 233 233 234 234 227 217 228 188 190 191 194 199
315 315 316 317 314 313 314 313 311 307 302 305 313 322 321 320 322 326 328 330 335 334 330 326 332 330 325 324 325 323 322 321 317 318 316 314 290 253 240 232 227 226 225 224 225 225 226 225 226 228 233 236 236 236 233 231 220 212 206 189 194 195 200
306 309 308 307 307 309 310 307 304 302 297 294 300 307 311 313 314 322 327 330 328 329 330 329 327 326 327 323 321 319 318 316 320 315 312 304 309 308 275 247 237 234 232 230 230 230 232 236 236 237 240 242 244 242 238 231 231 204 207 196 194 197 200
305 305 306 308 307 308 305 301 303 301 295 287 287 292 296 298 304 315 322 326 328 330 331 328 323 321 326 325 323 322 321 322 321 317 304 294 304 303 298 283 255 243 235 235 235 234 234 236 235 234 236 237 239 243 243 240 230 230 200 202 193 199 201
303 302 302 304 303 304 303 300 295 294 292 287 274 275 280 287 294 304 312 321 323 325 324 324 327 322 326 325 324 323 323 321 324 324 313 304 277 283 293 289 276 257 252 237 236 235 236 234 233 235 236 237 237 238 240 240 239 232 217 191 201 200 203
304 304 305 304 303 304 300 299 294 291 292 290 284 270 269 284 293 289 307 316 317 322 322 322 320 322 322 325 323 323 321 323 324 329 322 312 307 286 262 275 274 265 257 250 242 235 232 232 232 235 235 236 237 236 238 238 240 234 224 204 192 199 198
303 303 302 301 300 300 297 289 284 284 288 287 283 268 259 268 281 293 308 313 309 317 318 310 311 317 321 322 324 322 324 324 328 329 327 321 322 320 309 295 296 291 269 252 245 245 240 236 236 235 233 234 234 235 235 234 234 226 220 216 205 200 194
300 299 300 301 299 298 294 290 285 283 282 282 281 270 264 262 273 293 306 310 313 318 319 313 310 310 311 321 324 322 324 325 326 323 319 314 308 302 291 285 279 278 279 285 294 277 261 252 248 239 240 239 237 229 229 231 227 223 210 213 207 205 205
301 299 297 298 298 295 293 288 283 280 279 279 276 269 259 257 272 291 300 309 312 318 315 314 310 307 311 318 322 324 326 324 322 319 313 312 310 307 298 284 267 261 272 280 279 286 291 288 271 261 253 248 244 238 232 226 228 218 199 206 209 210 209
301 299 297 298 297 295 293 290 285 282 279 276 273 260 243 257 276 288 294 301 312 316 311 312 310 305 306 315 321 326 322 319 316 316 311 309 312 311 306 302 295 269 253 249 259 264 266 265 262 267 267 257 257 246 232 243 254 219 196 201 210 208 209
297 293 291 290 290 294 295 291 285 282 278 278 272 255 242 261 272 285 293 301 313 310 306 305 302 301 303 308 315 318 317 313 313 311 310 313 314 311 305 305 302 299 285 270 270 268 260 256 256 253 246 248 247 250 255 236 228 226 205 208 209 210 209